Time,TemperatureF,DewpointF,PressureIn,WindDirection,WindDirectionDegrees,WindSpeedMPH,WindSpeedGustMPH,Humidity,HourlyPrecipIn,Conditions,Clouds,dailyrainin,SoftwareType,DateUTC
2013-02-14 00:02:00,31.0,28.0,29.78,South,173,3.0,10.0,87,0.00,,,0.37,,2013-02-14 05:02:00,
2013-02-14 00:11:00,31.0,28.0,29.78,South,173,3.0,10.0,87,0.00,,,0.37,,2013-02-14 05:11:00,
2013-02-14 00:22:00,31.0,28.0,29.78,South,172,4.0,12.0,87,0.00,,,0.37,,2013-02-14 05:22:00,
2013-02-14 00:32:00,30.0,27.0,29.79,South,171,2.0,10.0,87,0.00,,,0.37,,2013-02-14 05:32:00,
2013-02-14 00:42:00,30.0,27.0,29.79,South,171,2.0,10.0,87,0.00,,,0.37,,2013-02-14 05:42:00,
2013-02-14 00:52:00,30.0,27.0,29.79,South,170,3.0,12.0,87,0.00,,,0.37,,2013-02-14 05:52:00,
2013-02-14 01:02:00,30.0,27.0,29.80,South,170,3.0,11.0,88,0.00,,,0.24,,2013-02-14 06:02:00,
2013-02-14 01:11:00,30.0,27.0,29.80,SSE,168,3.0,17.0,87,0.00,,,0.24,,2013-02-14 06:11:00,
2013-02-14 01:21:00,30.0,27.0,29.80,SSE,168,3.0,17.0,87,0.00,,,0.24,,2013-02-14 06:21:00,
2013-02-14 01:32:00,30.0,26.0,29.81,South,169,5.0,14.0,86,0.00,,,0.24,,2013-02-14 06:32:00,
2013-02-14 01:42:00,30.0,26.0,29.81,South,169,5.0,14.0,86,0.00,,,0.24,,2013-02-14 06:42:00,
2013-02-14 01:52:00,30.0,26.0,29.81,South,172,2.0,10.0,85,0.00,,,0.24,,2013-02-14 06:52:00,
2013-02-14 02:01:00,29.0,25.0,29.81,South,173,2.0,8.0,85,0.00,,,0.08,,2013-02-14 07:01:00,
2013-02-14 02:11:00,29.0,25.0,29.81,South,173,2.0,8.0,85,0.00,,,0.08,,2013-02-14 07:11:00,
2013-02-14 02:21:00,29.0,25.0,29.81,South,172,2.0,11.0,85,0.00,,,0.08,,2013-02-14 07:21:00,
2013-02-14 02:32:00,29.0,25.0,29.82,South,172,1.0,7.0,85,0.00,,,0.08,,2013-02-14 07:32:00,
2013-02-14 02:42:00,29.0,25.0,29.82,South,172,1.0,7.0,85,0.00,,,0.08,,2013-02-14 07:42:00,
2013-02-14 02:52:00,29.0,25.0,29.82,SSE,167,2.0,9.0,85,0.00,,,0.08,,2013-02-14 07:52:00,
2013-02-14 03:01:00,29.0,25.0,29.83,SSE,166,2.0,12.0,85,0.00,,,0.06,,2013-02-14 08:01:00,
2013-02-14 03:11:00,29.0,25.0,29.83,SSE,166,2.0,12.0,85,0.00,,,0.06,,2013-02-14 08:11:00,
2013-02-14 03:22:00,29.0,25.0,29.83,South,173,3.0,10.0,85,0.00,,,0.06,,2013-02-14 08:22:00,
2013-02-14 03:32:00,28.0,24.0,29.82,South,169,3.0,11.0,86,0.00,,,0.06,,2013-02-14 08:32:00,
2013-02-14 03:43:00,28.0,24.0,29.82,South,169,3.0,11.0,86,0.00,,,0.06,,2013-02-14 08:43:00,
2013-02-14 03:52:00,28.0,24.0,29.81,South,175,3.0,12.0,84,0.00,,,0.06,,2013-02-14 08:52:00,
2013-02-14 04:02:00,28.0,24.0,29.81,South,176,2.0,12.0,84,0.00,,,0.06,,2013-02-14 09:02:00,
2013-02-14 04:11:00,28.0,24.0,29.81,South,176,2.0,12.0,84,0.00,,,0.06,,2013-02-14 09:11:00,
2013-02-14 04:21:00,28.0,24.0,29.82,South,172,2.0,10.0,84,0.00,,,0.06,,2013-02-14 09:21:00,
2013-02-14 04:32:00,28.0,24.0,29.82,South,174,3.0,15.0,83,0.00,,,0.06,,2013-02-14 09:32:00,
2013-02-14 04:42:00,28.0,24.0,29.82,South,174,3.0,15.0,83,0.00,,,0.06,,2013-02-14 09:42:00,
2013-02-14 04:52:00,28.0,23.0,29.82,South,169,4.0,9.0,82,0.00,,,0.06,,2013-02-14 09:52:00,
2013-02-14 05:02:00,28.0,23.0,29.82,South,169,4.0,9.0,82,0.00,,,0.06,,2013-02-14 10:02:00,
2013-02-14 05:11:00,28.0,23.0,29.83,South,171,4.0,15.0,82,0.00,,,0.05,,2013-02-14 10:11:00,
2013-02-14 05:21:00,28.0,23.0,29.83,South,171,4.0,15.0,82,0.00,,,0.05,,2013-02-14 10:21:00,
2013-02-14 05:32:00,28.0,23.0,29.83,South,171,2.0,13.0,81,0.00,,,0.05,,2013-02-14 10:32:00,
2013-02-14 05:42:00,28.0,23.0,29.83,South,171,2.0,13.0,81,0.00,,,0.05,,2013-02-14 10:42:00,
2013-02-14 05:52:00,28.0,23.0,29.84,South,169,5.0,15.0,81,0.00,,,0.05,,2013-02-14 10:52:00,
2013-02-14 06:02:00,28.0,23.0,29.84,South,169,6.0,15.0,81,0.00,,,0.04,,2013-02-14 11:02:00,
2013-02-14 06:11:00,28.0,23.0,29.84,South,169,6.0,15.0,81,0.00,,,0.04,,2013-02-14 11:11:00,
2013-02-14 06:22:00,27.0,22.0,29.84,SSE,165,7.0,12.0,80,0.00,,,0.04,,2013-02-14 11:22:00,
2013-02-14 06:32:00,27.0,22.0,29.84,SSE,166,9.0,15.0,82,0.00,,,0.04,,2013-02-14 11:32:00,
2013-02-14 06:42:00,27.0,22.0,29.84,SSE,166,9.0,15.0,82,0.00,,,0.04,,2013-02-14 11:42:00,
2013-02-14 06:52:00,27.0,22.0,29.85,SSE,167,7.0,14.0,82,0.00,,,0.04,,2013-02-14 11:52:00,
2013-02-14 07:02:00,27.0,22.0,29.85,SSE,167,5.0,16.0,82,0.00,,,0.04,,2013-02-14 12:02:00,
2013-02-14 07:12:00,27.0,22.0,29.85,SSE,167,5.0,16.0,82,0.00,,,0.04,,2013-02-14 12:12:00,
2013-02-14 07:22:00,27.0,22.0,29.85,SSE,167,5.0,16.0,82,0.00,,,0.04,,2013-02-14 12:22:00,
2013-02-14 07:32:00,27.0,22.0,29.88,South,170,4.0,11.0,81,0.00,,,0.04,,2013-02-14 12:32:00,
2013-02-14 07:42:00,27.0,22.0,29.88,South,170,4.0,11.0,81,0.00,,,0.04,,2013-02-14 12:42:00,
2013-02-14 07:53:00,27.0,22.0,29.88,South,169,2.0,10.0,80,0.00,,,0.04,,2013-02-14 12:53:00,
2013-02-14 08:02:00,27.0,22.0,29.89,SSE,165,5.0,11.0,80,0.00,,,0.02,,2013-02-14 13:02:00,
2013-02-14 08:11:00,27.0,22.0,29.89,SSE,165,5.0,11.0,80,0.00,,,0.02,,2013-02-14 13:11:00,
2013-02-14 08:21:00,27.0,22.0,29.90,South,169,3.0,9.0,81,0.00,,,0.02,,2013-02-14 13:21:00,
2013-02-14 08:32:00,28.0,23.0,29.90,SSE,167,3.0,11.0,80,0.00,,,0.02,,2013-02-14 13:32:00,
2013-02-14 08:42:00,28.0,23.0,29.90,SSE,167,3.0,11.0,80,0.00,,,0.02,,2013-02-14 13:42:00,
2013-02-14 08:52:00,28.0,22.0,29.91,South,169,3.0,12.0,78,0.00,,,0.02,,2013-02-14 13:52:00,
2013-02-14 09:01:00,29.0,23.0,29.92,South,173,3.0,10.0,78,0.00,,,0.02,,2013-02-14 14:01:00,
2013-02-14 09:11:00,29.0,23.0,29.92,South,173,3.0,10.0,78,0.00,,,0.02,,2013-02-14 14:11:00,
2013-02-14 09:21:00,30.0,24.0,29.93,South,171,1.0,4.0,77,0.00,,,0.02,,2013-02-14 14:21:00,
2013-02-14 09:32:00,31.0,24.0,29.93,South,172,0.0,6.0,75,0.00,,,0.02,,2013-02-14 14:32:00,
2013-02-14 09:42:00,31.0,24.0,29.93,South,172,0.0,6.0,75,0.00,,,0.02,,2013-02-14 14:42:00,
2013-02-14 09:52:00,31.0,23.0,29.93,South,172,0.0,3.0,73,0.00,,,0.02,,2013-02-14 14:52:00,
2013-02-14 10:02:00,33.0,24.0,29.93,South,172,0.0,4.0,70,0.00,,,0.01,,2013-02-14 15:02:00,
2013-02-14 10:11:00,33.0,24.0,29.93,South,172,0.0,4.0,70,0.00,,,0.01,,2013-02-14 15:11:00,
2013-02-14 10:21:00,34.0,23.0,29.93,South,173,0.0,6.0,64,0.00,,,0.01,,2013-02-14 15:21:00,
2013-02-14 10:32:00,36.0,26.0,29.93,South,174,1.0,5.0,67,0.00,,,0.01,,2013-02-14 15:32:00,
2013-02-14 10:42:00,36.0,26.0,29.93,South,174,1.0,5.0,67,0.00,,,0.01,,2013-02-14 15:42:00,
2013-02-14 10:52:00,36.0,24.0,29.93,South,174,1.0,6.0,62,0.00,,,0.01,,2013-02-14 15:52:00,
2013-02-14 11:02:00,37.0,24.0,29.92,South,173,1.0,5.0,60,0.00,,,0.01,,2013-02-14 16:02:00,
2013-02-14 11:11:00,38.0,25.0,29.92,South,175,2.0,8.0,59,0.00,,,0.01,,2013-02-14 16:11:00,
2013-02-14 11:21:00,38.0,25.0,29.92,South,175,2.0,8.0,59,0.00,,,0.01,,2013-02-14 16:21:00,
2013-02-14 11:32:00,39.0,25.0,29.94,South,173,2.0,7.0,56,0.00,,,0.01,,2013-02-14 16:32:00,
2013-02-14 11:42:00,39.0,25.0,29.94,South,173,2.0,7.0,56,0.00,,,0.01,,2013-02-14 16:42:00,
2013-02-14 11:52:00,41.0,27.0,29.94,South,173,0.0,6.0,58,0.00,,,0.01,,2013-02-14 16:52:00,
2013-02-14 12:01:00,43.0,28.0,29.93,South,173,1.0,5.0,54,0.00,,,0.00,,2013-02-14 17:01:00,
2013-02-14 12:11:00,43.0,28.0,29.93,South,173,1.0,5.0,54,0.00,,,0.00,,2013-02-14 17:11:00,
2013-02-14 12:21:00,43.0,30.0,29.93,South,173,1.0,4.0,60,0.00,,,0.00,,2013-02-14 17:21:00,
2013-02-14 12:32:00,44.0,30.0,29.93,South,175,0.0,2.0,58,0.00,,,0.00,,2013-02-14 17:32:00,
2013-02-14 12:42:00,44.0,30.0,29.93,South,175,0.0,2.0,58,0.00,,,0.00,,2013-02-14 17:42:00,
2013-02-14 12:52:00,45.0,31.0,29.93,South,174,0.0,5.0,58,0.00,,,0.00,,2013-02-14 17:52:00,
2013-02-14 13:01:00,45.0,31.0,29.93,South,174,0.0,5.0,58,0.00,,,0.00,,2013-02-14 18:01:00,
2013-02-14 13:11:00,45.0,31.0,29.93,South,174,0.0,5.0,58,0.00,,,0.00,,2013-02-14 18:11:00,
2013-02-14 13:23:00,47.0,32.0,29.92,South,174,0.0,5.0,55,0.00,,,0.00,,2013-02-14 18:23:00,
2013-02-14 13:32:00,45.0,28.0,29.91,South,174,0.0,6.0,51,0.00,,,0.00,,2013-02-14 18:32:00,
2013-02-14 13:42:00,45.0,28.0,29.91,South,174,0.0,6.0,51,0.00,,,0.00,,2013-02-14 18:42:00,
2013-02-14 13:52:00,46.0,26.0,29.90,South,174,0.0,4.0,46,0.00,,,0.00,,2013-02-14 18:52:00,
2013-02-14 14:02:00,47.0,25.0,29.89,South,172,0.0,7.0,41,0.00,,,0.00,,2013-02-14 19:02:00,
2013-02-14 14:11:00,47.0,25.0,29.89,South,172,0.0,7.0,41,0.00,,,0.00,,2013-02-14 19:11:00,
2013-02-14 14:22:00,48.0,24.0,29.88,South,172,2.0,7.0,38,0.00,,,0.00,,2013-02-14 19:22:00,
2013-02-14 14:32:00,49.0,19.0,29.88,South,173,1.0,5.0,30,0.00,,,0.00,,2013-02-14 19:32:00,
2013-02-14 14:52:00,49.0,23.0,29.90,South,172,4.0,8.0,35,0.00,,,0.00,,2013-02-14 19:52:00,
2013-02-14 15:01:00,49.0,24.0,29.90,South,169,4.0,10.0,37,0.00,,,0.00,,2013-02-14 20:01:00,
2013-02-14 15:11:00,48.0,23.0,29.90,South,172,4.0,14.0,37,0.00,,,0.00,,2013-02-14 20:11:00,
2013-02-14 15:21:00,48.0,23.0,29.90,South,172,4.0,14.0,37,0.00,,,0.00,,2013-02-14 20:21:00,
2013-02-14 15:32:00,48.0,23.0,29.90,South,172,4.0,14.0,37,0.00,,,0.00,,2013-02-14 20:32:00,
2013-02-14 15:42:00,48.0,23.0,29.90,South,172,4.0,14.0,37,0.00,,,0.00,,2013-02-14 20:42:00,
2013-02-14 15:52:00,49.0,24.0,29.89,South,173,3.0,10.0,37,0.00,,,0.00,,2013-02-14 20:52:00,
2013-02-14 16:02:00,49.0,25.0,29.91,South,172,3.0,11.0,39,0.00,,,0.00,,2013-02-14 21:02:00,
2013-02-14 16:11:00,49.0,25.0,29.91,South,172,3.0,11.0,39,0.00,,,0.00,,2013-02-14 21:11:00,
2013-02-14 16:21:00,49.0,26.0,29.90,South,170,4.0,9.0,40,0.00,,,0.00,,2013-02-14 21:21:00,
2013-02-14 16:32:00,49.0,26.0,29.91,South,169,3.0,7.0,41,0.00,,,0.00,,2013-02-14 21:32:00,
2013-02-14 16:42:00,49.0,26.0,29.91,South,169,3.0,7.0,41,0.00,,,0.00,,2013-02-14 21:42:00,
2013-02-14 16:51:00,49.0,26.0,29.91,South,169,2.0,6.0,41,0.00,,,0.00,,2013-02-14 21:51:00,
2013-02-14 17:02:00,49.0,26.0,29.91,South,169,0.0,4.0,40,0.00,,,0.00,,2013-02-14 22:02:00,
2013-02-14 17:11:00,48.0,25.0,29.91,South,169,0.0,3.0,41,0.00,,,0.00,,2013-02-14 22:11:00,
2013-02-14 17:21:00,48.0,25.0,29.91,South,169,0.0,3.0,41,0.00,,,0.00,,2013-02-14 22:21:00,
2013-02-14 17:32:00,48.0,25.0,29.91,South,169,0.0,3.0,41,0.00,,,0.00,,2013-02-14 22:32:00,
2013-02-14 17:42:00,48.0,25.0,29.91,South,169,0.0,3.0,41,0.00,,,0.00,,2013-02-14 22:42:00,
2013-02-14 17:51:00,47.0,25.0,29.91,South,169,0.0,4.0,42,0.00,,,0.00,,2013-02-14 22:51:00,
2013-02-14 18:01:00,46.0,25.0,29.91,South,173,0.0,5.0,43,0.00,,,0.00,,2013-02-14 23:01:00,
2013-02-14 18:11:00,46.0,25.0,29.91,South,173,0.0,5.0,43,0.00,,,0.00,,2013-02-14 23:11:00,
2013-02-14 18:21:00,43.0,25.0,29.91,South,173,0.0,4.0,48,0.00,,,0.00,,2013-02-14 23:21:00,
2013-02-14 18:32:00,42.0,25.0,29.92,South,173,1.0,6.0,50,0.00,,,0.00,,2013-02-14 23:32:00,
2013-02-14 18:42:00,42.0,25.0,29.92,South,173,1.0,6.0,50,0.00,,,0.00,,2013-02-14 23:42:00,
2013-02-14 18:52:00,42.0,26.0,29.93,South,173,0.0,5.0,52,0.00,,,0.00,,2013-02-14 23:52:00,
2013-02-14 19:01:00,41.0,26.0,29.92,South,174,0.0,5.0,54,0.00,,,0.00,,2013-02-15 00:01:00,
2013-02-14 19:11:00,41.0,26.0,29.92,South,174,0.0,5.0,54,0.00,,,0.00,,2013-02-15 00:11:00,
2013-02-14 19:22:00,41.0,26.0,29.92,South,174,0.0,5.0,54,0.00,,,0.00,,2013-02-15 00:22:00,
2013-02-14 19:32:00,40.0,25.0,29.93,South,174,0.0,4.0,54,0.00,,,0.00,,2013-02-15 00:32:00,
2013-02-14 19:42:00,40.0,25.0,29.93,South,174,0.0,4.0,54,0.00,,,0.00,,2013-02-15 00:42:00,
2013-02-14 19:51:00,40.0,25.0,29.93,South,174,0.0,4.0,54,0.00,,,0.00,,2013-02-15 00:51:00,
2013-02-14 20:02:00,40.0,26.0,29.93,South,172,0.0,3.0,57,0.00,,,0.00,,2013-02-15 01:02:00,
2013-02-14 20:11:00,40.0,26.0,29.93,South,172,0.0,3.0,57,0.00,,,0.00,,2013-02-15 01:11:00,
2013-02-14 20:21:00,39.0,26.0,29.94,South,172,0.0,2.0,59,0.00,,,0.00,,2013-02-15 01:21:00,
2013-02-14 20:32:00,39.0,26.0,29.94,South,172,0.0,2.0,60,0.00,,,0.00,,2013-02-15 01:32:00,
2013-02-14 20:42:00,39.0,26.0,29.94,South,172,0.0,2.0,60,0.00,,,0.00,,2013-02-15 01:42:00,
2013-02-14 20:51:00,39.0,26.0,29.94,South,172,0.0,2.0,60,0.00,,,0.00,,2013-02-15 01:51:00,
2013-02-14 21:01:00,38.0,27.0,29.94,South,172,0.0,3.0,64,0.00,,,0.00,,2013-02-15 02:01:00,
2013-02-14 21:11:00,38.0,27.0,29.94,South,172,0.0,3.0,64,0.00,,,0.00,,2013-02-15 02:11:00,
2013-02-14 21:21:00,39.0,28.0,29.94,South,174,0.0,5.0,65,0.00,,,0.00,,2013-02-15 02:21:00,
2013-02-14 21:32:00,39.0,28.0,29.94,South,174,0.0,5.0,65,0.00,,,0.00,,2013-02-15 02:32:00,
2013-02-14 21:42:00,39.0,28.0,29.94,South,174,0.0,5.0,65,0.00,,,0.00,,2013-02-15 02:42:00,
2013-02-14 21:52:00,38.0,27.0,29.95,South,174,0.0,1.0,65,0.00,,,0.00,,2013-02-15 02:52:00,
2013-02-14 22:02:00,39.0,28.0,29.96,South,174,1.0,5.0,65,0.00,,,0.00,,2013-02-15 03:02:00,
2013-02-14 22:11:00,39.0,28.0,29.96,South,174,1.0,5.0,65,0.00,,,0.00,,2013-02-15 03:11:00,
2013-02-14 22:22:00,39.0,28.0,29.96,South,174,0.0,6.0,65,0.00,,,0.00,,2013-02-15 03:22:00,
2013-02-14 22:32:00,39.0,29.0,29.96,South,174,0.0,4.0,66,0.00,,,0.00,,2013-02-15 03:32:00,
2013-02-14 22:42:00,39.0,29.0,29.96,South,174,0.0,4.0,66,0.00,,,0.00,,2013-02-15 03:42:00,
2013-02-14 22:51:00,39.0,29.0,29.96,South,174,0.0,3.0,67,0.00,,,0.00,,2013-02-15 03:51:00,
2013-02-14 23:02:00,39.0,29.0,29.96,South,174,1.0,3.0,67,0.00,,,0.00,,2013-02-15 04:02:00,
2013-02-14 23:11:00,39.0,29.0,29.96,South,174,1.0,3.0,67,0.00,,,0.00,,2013-02-15 04:11:00,
2013-02-14 23:21:00,39.0,29.0,29.96,South,174,1.0,4.0,68,0.00,,,0.00,,2013-02-15 04:21:00,
2013-02-14 23:32:00,38.0,28.0,29.96,South,174,1.0,4.0,68,0.00,,,0.00,,2013-02-15 04:32:00,
2013-02-14 23:42:00,38.0,28.0,29.96,South,174,1.0,4.0,68,0.00,,,0.00,,2013-02-15 04:42:00,
2013-02-14 23:52:00,38.0,29.0,29.96,South,174,1.0,5.0,69,0.00,,,0.00,,2013-02-15 04:52:00,